Location: La Brionne
(46.1728°N, 1.7849°E)
Time: 11:12:12
(UTC+00:00)

USA 267 - Visible Passes

Search period start: 23 October 2021 00:00
Search period end: 02 November 2021 00:00
Orbit: 1101 x 1106 km, 123.0° (Epoch: 21 October)

Date Brightness Start Highest point End Pass type
(mag) Time Alt. Az. Time Alt. Az. Time Alt. Az.
23 Oct 4.5 18:40:43 10° SSE 18:46:45 39° SW 18:52:49 10° WNW visible
24 Oct 3.6 17:57:13 10° SE 18:03:45 70° SW 18:10:18 10° NW visible
24 Oct 5.3 19:43:03 10° SSW 19:47:32 19° WSW 19:52:03 10° WNW visible
25 Oct 3.3 17:14:26 10° ESE 17:20:59 74° NNE 17:27:32 10° NW visible
25 Oct 4.4 18:58:16 10° SSE 19:04:18 38° SW 19:10:21 10° WNW visible
26 Oct 3.5 18:14:45 10° SE 18:21:17 69° SW 18:27:51 10° NW visible
26 Oct 5.3 20:01:04 11° SSW 20:05:05 19° WSW 20:09:34 10° WNW visible
27 Oct 3.3 17:31:59 10° ESE 17:38:31 75° NNE 17:45:04 10° NW visible
27 Oct 4.4 19:17:09 16° S 19:21:50 38° SW 19:27:53 10° WNW visible
28 Oct 3.5 18:33:11 15° SE 18:38:50 69° SW 18:45:23 10° NW visible
28 Oct 5.2 20:20:34 17° SW 20:22:37 19° WSW 20:27:06 10° W visible
29 Oct 3.3 17:49:31 10° ESE 17:56:03 75° NNE 18:02:36 10° NW visible
29 Oct 4.3 19:36:33 26° S 19:39:23 38° SW 19:45:25 10° WNW visible
30 Oct 3.6 17:07:12 10° E 17:13:29 51° NNE 17:19:47 10° NW visible
30 Oct 3.4 18:52:29 26° SE 18:56:22 68° SW 19:02:55 10° NW visible
30 Oct 5.2 20:39:51 19° SW 20:40:10 19° WSW 20:44:36 10° W visible
31 Oct 3.2 18:08:21 17° ESE 18:13:36 75° NNE 18:20:09 10° NW visible
31 Oct 4.2 19:55:44 35° SSW 19:56:55 38° SW 20:02:57 10° WNW visible
01 Nov 3.6 17:24:44 10° E 17:31:02 51° NNE 17:37:19 10° NW visible
01 Nov 3.4 19:11:35 42° SSE 19:13:55 68° SW 19:20:28 10° NW visible
01 Nov 5.3 20:58:57 18° WSW 20:58:57 18° WSW 21:02:08 10° W visible
